,,,PA_Meas_PMT16A,,PR_Meas_QMR101_102,,RH_Meas_QMH101,,SR_Meas_QMS101,,TA_Meas_QMH101,,GenWind,,GenWind,
date,time,status,PA,status,PR,status,RH,status,SR,status,TA,status,DirAvg,status,SpdAvg,
2010-11-06, 00:00:04,VALID,1003.85,VALID,0,INVALID,163.716,VALID,0,VALID,23.7814,VALID,8,VALID,0.328906,
2010-11-06, 00:01:04,VALID,1003.84,VALID,0,INVALID,163.685,VALID,0,VALID,23.7619,VALID,8,VALID,0.395703,
2010-11-06, 00:02:04,VALID,1003.82,VALID,0,INVALID,163.693,VALID,0,VALID,23.7407,VALID,8,VALID,0.460938,
2010-11-06, 00:03:04,VALID,1003.79,VALID,0,INVALID,163.708,VALID,0,VALID,23.7619,VALID,8,VALID,0.603906,
2010-11-06, 00:04:04,VALID,1003.8,VALID,0,INVALID,163.708,VALID,0,VALID,23.7425,VALID,8,VALID,0.591016,
2010-11-06, 00:05:04,VALID,1003.8,VALID,0,INVALID,163.693,VALID,0,VALID,23.7212,VALID,8,VALID,0.614844,
2010-11-06, 00:06:04,VALID,1003.8,VALID,0,INVALID,163.693,VALID,0,VALID,23.7035,VALID,8,VALID,0.659375,
2010-11-06, 00:07:04,VALID,1003.82,VALID,0,INVALID,163.708,VALID,0,VALID,23.6823,VALID,8,VALID,0.549219,
2010-11-06, 00:08:04,VALID,1003.78,VALID,0,INVALID,163.708,VALID,0,VALID,23.7053,VALID,8,VALID,0.582031,
2010-11-06, 00:09:04,VALID,1003.79,VALID,0,INVALID,163.716,VALID,0,VALID,23.6841,VALID,8,VALID,0.594531,
2010-11-06, 00:10:04,VALID,1003.77,VALID,0,INVALID,163.701,VALID,0,VALID,23.6646,VALID,7,VALID,0.671875,
2010-11-06, 00:11:04,VALID,1003.78,VALID,0,INVALID,163.708,VALID,0,VALID,23.6452,VALID,7,VALID,0.641797,
2010-11-06, 00:12:04,VALID,1003.76,VALID,0,INVALID,163.731,VALID,0,VALID,23.6044,VALID,7,VALID,0.378125,
2010-11-06, 00:13:04,VALID,1003.75,VALID,0,INVALID,163.723,VALID,0,VALID,23.585,VALID,7,VALID,0.398828,
2010-11-06, 00:14:04,VALID,1003.73,VALID,0,INVALID,163.731,VALID,0,VALID,23.5655,VALID,7,VALID,0.488281,
2010-11-06, 00:15:04,VALID,1003.7,VALID,0,INVALID,163.731,VALID,0,VALID,23.5655,VALID,7,VALID,0.400781,
2010-11-06, 00:16:04,VALID,1003.69,VALID,0,INVALID,163.716,VALID,0.100563,VALID,23.5266,VALID,7,VALID,0.367969,
2010-11-06, 00:17:04,VALID,1003.7,VALID,0,INVALID,163.716,VALID,0,VALID,23.5071,VALID,7,VALID,0.324219,
2010-11-06, 00:18:04,VALID,1003.73,VALID,0,INVALID,163.708,VALID,0,VALID,23.5284,VALID,7,VALID,0.177734,
2010-11-06, 00:19:04,VALID,1003.72,VALID,0,INVALID,163.701,VALID,0,VALID,23.5071,VALID,7,VALID,0,
2010-11-06, 00:20:04,VALID,1003.74,VALID,0,INVALID,163.746,VALID,0,VALID,23.546,VALID,7,VALID,0,
2010-11-06, 00:21:04,VALID,1003.72,VALID,0,INVALID,163.708,VALID,0,VALID,23.5655,VALID,7,VALID,0,
2010-11-06, 00:22:04,VALID,1003.69,VALID,0,INVALID,163.731,VALID,0,VALID,23.585,VALID,7,VALID,0,
2010-11-06, 00:23:04,VALID,1003.66,VALID,0,INVALID,163.708,VALID,0,VALID,23.585,VALID,7,VALID,0,
2010-11-06, 00:24:04,VALID,1003.64,VALID,0,INVALID,163.723,VALID,0,VALID,23.5443,VALID,5,VALID,0,
2010-11-06, 00:25:04,VALID,1003.58,VALID,0,INVALID,163.723,VALID,0,VALID,23.5655,VALID,3,VALID,0,
2010-11-06, 00:26:04,VALID,1003.57,VALID,0,INVALID,163.723,VALID,0,VALID,23.546,VALID,1,VALID,0,
2010-11-06, 00:27:04,VALID,1003.59,VALID,0,INVALID,163.716,VALID,0.100563,VALID,23.5071,VALID,1,VALID,0,
2010-11-06, 00:28:04,VALID,1003.58,VALID,0,INVALID,163.708,VALID,0,VALID,23.4877,VALID,360,VALID,0.2125,
2010-11-06, 00:29:04,VALID,1003.56,VALID,0,INVALID,163.731,VALID,0,VALID,23.4487,VALID,360,VALID,0.748438,
2010-11-06, 00:30:04,VALID,1003.55,VALID,0,INVALID,163.716,VALID,0,VALID,23.47,VALID,360,VALID,0.574219,
2010-11-06, 00:31:04,VALID,1003.54,VALID,0,INVALID,163.739,VALID,0.100563,VALID,23.4293,VALID,360,VALID,0.685156,
2010-11-06, 00:32:04,VALID,1003.5,VALID,0,INVALID,163.746,VALID,0.100563,VALID,23.4098,VALID,360,VALID,0.722266,
2010-11-06, 00:33:04,VALID,1003.49,VALID,0,INVALID,163.731,VALID,0,VALID,23.4098,VALID,360,VALID,0.664063,
2010-11-06, 00:34:04,VALID,1003.48,VALID,0,INVALID,163.731,VALID,0,VALID,23.4293,VALID,360,VALID,0.583594,
2010-11-06, 00:35:04,VALID,1003.46,VALID,0,INVALID,163.723,VALID,0,VALID,23.4487,VALID,360,VALID,0.677734,
2010-11-06, 00:36:04,VALID,1003.43,VALID,0,INVALID,163.716,VALID,0,VALID,23.4293,VALID,360,VALID,0.539844,
2010-11-06, 00:37:04,VALID,1003.43,VALID,0,INVALID,163.716,VALID,0.100563,VALID,23.4487,VALID,360,VALID,0.478906,
2010-11-06, 00:38:04,VALID,1003.42,VALID,0,INVALID,163.723,VALID,0,VALID,23.4487,VALID,360,VALID,0.451953,
2010-11-06, 00:39:04,VALID,1003.4,VALID,0,INVALID,163.731,VALID,0,VALID,23.4487,VALID,360,VALID,0.407813,
2010-11-06, 00:40:04,VALID,1003.4,VALID,0,INVALID,163.731,VALID,0,VALID,23.4487,VALID,360,VALID,0.262109,
2010-11-06, 00:41:04,VALID,1003.4,VALID,0,INVALID,163.731,VALID,0,VALID,23.4487,VALID,360,VALID,0.462891,
2010-11-06, 00:42:04,VALID,1003.38,VALID,0,INVALID,163.693,VALID,0,VALID,23.4682,VALID,360,VALID,0.457422,
2010-11-06, 00:43:04,VALID,1003.35,VALID,0,INVALID,163.731,VALID,0,VALID,23.4664,VALID,360,VALID,0.430469,
2010-11-06, 00:44:04,VALID,1003.34,VALID,0,INVALID,163.723,VALID,0.100563,VALID,23.4877,VALID,360,VALID,0.435156,
2010-11-06, 00:45:04,VALID,1003.32,VALID,0,INVALID,163.693,VALID,0,VALID,23.4682,VALID,360,VALID,0.341016,
2010-11-06, 00:46:04,VALID,1003.33,VALID,0,INVALID,163.701,VALID,0,VALID,23.5089,VALID,360,VALID,0.162109,
2010-11-06, 00:47:04,VALID,1003.29,VALID,0,INVALID,163.739,VALID,0,VALID,23.5089,VALID,360,VALID,0,
2010-11-06, 00:48:04,VALID,1003.27,VALID,0,INVALID,163.708,VALID,0,VALID,23.5089,VALID,360,VALID,0,
2010-11-06, 00:49:04,VALID,1003.22,VALID,0,INVALID,163.716,VALID,0,VALID,23.5284,VALID,360,VALID,0.328516,
2010-11-06, 00:50:04,VALID,1003.24,VALID,0,INVALID,163.685,VALID,0,VALID,23.5284,VALID,360,VALID,0.523828,
2010-11-06, 00:51:04,VALID,1003.21,VALID,0,INVALID,163.731,VALID,0,VALID,23.5071,VALID,360,VALID,0.465625,
2010-11-06, 00:52:04,VALID,1003.21,VALID,0,INVALID,163.708,VALID,0,VALID,23.5089,VALID,360,VALID,0.398047,
2010-11-06, 00:53:04,VALID,1003.21,VALID,0,INVALID,163.701,VALID,0,VALID,23.5496,VALID,360,VALID,0.414063,
2010-11-06, 00:54:04,VALID,1003.18,VALID,0,INVALID,163.693,VALID,0,VALID,23.5284,VALID,360,VALID,0.286719,
2010-11-06, 00:55:04,VALID,1003.22,VALID,0,INVALID,163.701,VALID,0,VALID,23.5071,VALID,360,VALID,0.513281,
2010-11-06, 00:56:04,VALID,1003.22,VALID,0,INVALID,163.716,VALID,0,VALID,23.5284,VALID,360,VALID,0.449609,
2010-11-06, 00:57:04,VALID,1003.2,VALID,0,INVALID,163.708,VALID,0,VALID,23.5089,VALID,360,VALID,0.402344,
2010-11-06, 00:58:04,VALID,1003.19,VALID,0,INVALID,163.708,VALID,0,VALID,23.5284,VALID,360,VALID,0.412891,
2010-11-06, 00:59:04,VALID,1003.16,VALID,0,INVALID,163.701,VALID,0,VALID,23.5284,VALID,360,VALID,0.581641,
2010-11-06, 01:00:04,VALID,1003.15,VALID,0,INVALID,163.708,VALID,0,VALID,23.5089,VALID,360,VALID,0.482812,
2010-11-06, 01:01:04,VALID,1003.12,VALID,0,INVALID,163.701,VALID,0,VALID,23.5284,VALID,360,VALID,0.413281,
2010-11-06, 01:02:04,VALID,1003.13,VALID,0,INVALID,163.701,VALID,0,VALID,23.5071,VALID,360,VALID,0.478125,
2010-11-06, 01:03:04,VALID,1003.13,VALID,0,INVALID,163.685,VALID,0,VALID,23.5071,VALID,360,VALID,0.353906,
2010-11-06, 01:04:04,VALID,1003.11,VALID,0,INVALID,163.693,VALID,0,VALID,23.5071,VALID,360,VALID,0.357812,
2010-11-06, 01:05:04,VALID,1003.12,VALID,0,INVALID,163.708,VALID,0,VALID,23.5071,VALID,360,VALID,0.26875,
2010-11-06, 01:06:04,VALID,1003.11,VALID,0,INVALID,163.678,VALID,0,VALID,23.5071,VALID,360,VALID,0.0535156,
2010-11-06, 01:07:04,VALID,1003.1,VALID,0,INVALID,163.685,VALID,0,VALID,23.5071,VALID,360,VALID,0.107813,
2010-11-06, 01:08:04,VALID,1003.11,VALID,0,INVALID,163.723,VALID,0,VALID,23.5071,VALID,360,VALID,0.225,
2010-11-06, 01:09:04,VALID,1003.08,VALID,0,INVALID,163.708,VALID,0,VALID,23.5266,VALID,360,VALID,0.334375,
2010-11-06, 01:10:04,VALID,1003.08,VALID,0,INVALID,163.723,VALID,0.100563,VALID,23.5266,VALID,360,VALID,0.43125,
2010-11-06, 01:11:04,VALID,1003.08,VALID,0,INVALID,163.716,VALID,0,VALID,23.5053,VALID,360,VALID,0.523438,
2010-11-06, 01:12:04,VALID,1003.08,VALID,0,INVALID,163.731,VALID,0,VALID,23.546,VALID,360,VALID,0.54375,
2010-11-06, 01:13:04,VALID,1003.07,VALID,0,INVALID,163.693,VALID,0,VALID,23.5266,VALID,360,VALID,0.536328,
2010-11-06, 01:14:04,VALID,1003.09,VALID,0,INVALID,163.701,VALID,0,VALID,23.5071,VALID,360,VALID,0.534766,
2010-11-06, 01:15:04,VALID,1003.12,VALID,0,INVALID,163.739,VALID,0,VALID,23.4894,VALID,360,VALID,0.583203,
2010-11-06, 01:16:04,VALID,1003.1,VALID,0,INVALID,163.731,VALID,0,VALID,23.4487,VALID,360,VALID,0.583203,
2010-11-06, 01:17:04,VALID,1003.11,VALID,0,INVALID,163.723,VALID,0,VALID,23.4505,VALID,360,VALID,0.469141,
2010-11-06, 01:18:04,VALID,1003.12,VALID,0,INVALID,163.708,VALID,0,VALID,23.3886,VALID,360,VALID,0.456641,
2010-11-06, 01:19:04,VALID,1003.1,VALID,0,INVALID,163.708,VALID,0,VALID,23.4098,VALID,360,VALID,0.49375,
2010-11-06, 01:20:04,VALID,1003.09,VALID,0,INVALID,163.716,VALID,0.100563,VALID,23.3904,VALID,360,VALID,0.501953,
2010-11-06, 01:21:04,VALID,1003.11,VALID,0,INVALID,163.746,VALID,0.100563,VALID,23.3497,VALID,360,VALID,0.440234,
2010-11-06, 01:22:04,VALID,1003.1,VALID,0,INVALID,163.708,VALID,0.100563,VALID,23.3514,VALID,360,VALID,0.426953,
2010-11-06, 01:23:04,VALID,1003.08,VALID,0,INVALID,163.723,VALID,0.100563,VALID,23.3532,VALID,360,VALID,0.399219,
2010-11-06, 01:24:04,VALID,1003.06,VALID,0,INVALID,163.716,VALID,0,VALID,23.2913,VALID,360,VALID,0.517187,
2010-11-06, 01:25:04,VALID,1003.07,VALID,0,INVALID,163.731,VALID,0,VALID,23.2931,VALID,360,VALID,0.511328,
2010-11-06, 01:26:04,VALID,1003.03,VALID,0,INVALID,163.723,VALID,0,VALID,23.2931,VALID,360,VALID,0.578906,
2010-11-06, 01:27:04,VALID,1003.01,VALID,0,INVALID,163.708,VALID,0,VALID,23.3107,VALID,354,VALID,0.721094,
2010-11-06, 01:28:04,VALID,1003.01,VALID,0,INVALID,163.739,VALID,0,VALID,23.3921,VALID,347,VALID,0.657422,
2010-11-06, 01:29:04,VALID,1003.01,VALID,0,INVALID,163.708,VALID,0,VALID,23.4098,VALID,342,VALID,0.623438,
2010-11-06, 01:30:04,VALID,1002.99,VALID,0,INVALID,163.716,VALID,0,VALID,23.4293,VALID,346,VALID,0.639844,
2010-11-06, 01:31:04,VALID,1002.99,VALID,0,INVALID,163.716,VALID,0,VALID,23.4487,VALID,353,VALID,0.863672,
2010-11-06, 01:32:04,VALID,1002.95,VALID,0,INVALID,163.731,VALID,0,VALID,23.5089,VALID,353,VALID,0.905859,
2010-11-06, 01:33:04,VALID,1002.93,VALID,0,INVALID,163.716,VALID,0,VALID,23.5071,VALID,8,VALID,0.875,
2010-11-06, 01:34:04,VALID,1002.93,VALID,0,INVALID,163.701,VALID,0.100563,VALID,23.546,VALID,355,VALID,0.849609,
2010-11-06, 01:35:04,VALID,1002.91,VALID,0,INVALID,163.701,VALID,0,VALID,23.6257,VALID,334,VALID,0.63125,
2010-11-06, 01:36:04,VALID,1002.86,VALID,0,INVALID,163.708,VALID,0,VALID,23.6239,VALID,351,VALID,0.503125,
2010-11-06, 01:37:04,VALID,1002.84,VALID,0,INVALID,163.693,VALID,0,VALID,23.6239,VALID,351,VALID,0.537109,
2010-11-06, 01:38:04,VALID,1002.81,VALID,0,INVALID,163.701,VALID,0,VALID,23.6044,VALID,351,VALID,0.472266,
2010-11-06, 01:39:04,VALID,1002.83,VALID,0,INVALID,163.716,VALID,0.100563,VALID,23.585,VALID,351,VALID,0.472266,
2010-11-06, 01:40:04,VALID,1002.87,VALID,0,INVALID,163.655,VALID,0.100563,VALID,23.546,VALID,351,VALID,0.375,
2010-11-06, 01:41:04,VALID,1002.82,VALID,0,INVALID,163.723,VALID,0,VALID,23.4859,VALID,351,VALID,0.564844,
2010-11-06, 01:42:04,VALID,1002.8,VALID,0,INVALID,163.708,VALID,0,VALID,23.5071,VALID,351,VALID,0.580078,
2010-11-06, 01:43:04,VALID,1002.8,VALID,0,INVALID,163.708,VALID,0,VALID,23.4877,VALID,351,VALID,0.341016,
2010-11-06, 01:44:04,VALID,1002.81,VALID,0,INVALID,163.731,VALID,0,VALID,23.4682,VALID,351,VALID,0.326562,
2010-11-06, 01:45:04,VALID,1002.78,VALID,0,INVALID,163.746,VALID,0,VALID,23.447,VALID,351,VALID,0.484375,
2010-11-06, 01:46:04,VALID,1002.76,VALID,0,INVALID,163.723,VALID,0,VALID,23.4293,VALID,351,VALID,0.498437,
2010-11-06, 01:47:04,VALID,1002.78,VALID,0,INVALID,163.723,VALID,0,VALID,23.4098,VALID,351,VALID,0.367188,
2010-11-06, 01:48:04,VALID,1002.79,VALID,0,INVALID,163.746,VALID,0.100563,VALID,23.3904,VALID,351,VALID,0.361328,
2010-11-06, 01:49:04,VALID,1002.79,VALID,0,INVALID,163.723,VALID,0,VALID,23.3709,VALID,351,VALID,0.351563,
2010-11-06, 01:50:04,VALID,1002.77,VALID,0,INVALID,163.716,VALID,0.100563,VALID,23.3709,VALID,351,VALID,0.413672,
2010-11-06, 01:51:04,VALID,1002.77,VALID,0,INVALID,163.708,VALID,0,VALID,23.3514,VALID,351,VALID,0.444922,
2010-11-06, 01:52:04,VALID,1002.74,VALID,0,INVALID,163.731,VALID,0,VALID,23.3709,VALID,351,VALID,0.401953,
2010-11-06, 01:53:04,VALID,1002.74,VALID,0,INVALID,163.708,VALID,0,VALID,23.3709,VALID,351,VALID,0.433203,
2010-11-06, 01:54:04,VALID,1002.74,VALID,0,INVALID,163.739,VALID,0,VALID,23.3514,VALID,351,VALID,0.394141,
2010-11-06, 01:55:04,VALID,1002.71,VALID,0,INVALID,163.708,VALID,0,VALID,23.3514,VALID,351,VALID,0.337891,
2010-11-06, 01:56:04,VALID,1002.71,VALID,0,INVALID,163.716,VALID,0.100563,VALID,23.3514,VALID,351,VALID,0.346094,
2010-11-06, 01:57:04,VALID,1002.72,VALID,0,INVALID,163.746,VALID,0,VALID,23.3709,VALID,351,VALID,0.385156,
2010-11-06, 01:58:04,VALID,1002.69,VALID,0,INVALID,163.716,VALID,0,VALID,23.3921,VALID,351,VALID,0.308203,
2010-11-06, 01:59:04,VALID,1002.7,VALID,0,INVALID,163.739,VALID,0,VALID,23.4293,VALID,351,VALID,0.234766,
2010-11-06, 02:00:04,VALID,1002.66,VALID,0,INVALID,163.731,VALID,0,VALID,23.4311,VALID,351,VALID,0.263672,
2010-11-06, 02:01:04,VALID,1002.68,VALID,0,INVALID,163.731,VALID,0,VALID,23.4311,VALID,351,VALID,0,
2010-11-06, 02:02:04,VALID,1002.65,VALID,0,INVALID,163.739,VALID,0,VALID,23.4098,VALID,351,VALID,0,
2010-11-06, 02:03:04,VALID,1002.65,VALID,0,INVALID,163.716,VALID,0,VALID,23.3904,VALID,351,VALID,0,
2010-11-06, 02:04:04,VALID,1002.63,VALID,0,INVALID,163.739,VALID,0,VALID,23.3709,VALID,351,VALID,0,
2010-11-06, 02:05:04,VALID,1002.67,VALID,0,INVALID,163.723,VALID,0,VALID,23.3709,VALID,351,VALID,0,
2010-11-06, 02:06:04,VALID,1002.67,VALID,0,INVALID,163.716,VALID,0,VALID,23.3904,VALID,351,VALID,0,
2010-11-06, 02:07:04,VALID,1002.68,VALID,0,INVALID,163.723,VALID,0,VALID,23.3904,VALID,351,VALID,0,
2010-11-06, 02:08:04,VALID,1002.67,VALID,0,INVALID,163.723,VALID,0,VALID,23.3904,VALID,351,VALID,0,
2010-11-06, 02:09:04,VALID,1002.69,VALID,0,INVALID,163.731,VALID,0,VALID,23.3709,VALID,351,VALID,0,
2010-11-06, 02:10:04,VALID,1002.73,VALID,0,INVALID,163.739,VALID,0,VALID,23.3709,VALID,351,VALID,0,
2010-11-06, 02:11:04,VALID,1002.71,VALID,0,INVALID,163.716,VALID,0,VALID,23.3514,VALID,351,VALID,0,
2010-11-06, 02:12:04,VALID,1002.71,VALID,0,INVALID,163.701,VALID,0,VALID,23.3514,VALID,351,VALID,0,
2010-11-06, 02:13:04,VALID,1002.72,VALID,0,INVALID,163.739,VALID,0,VALID,23.3514,VALID,351,VALID,0,
2010-11-06, 02:14:04,VALID,1002.71,VALID,0,INVALID,163.723,VALID,0,VALID,23.3514,VALID,351,VALID,0,
2010-11-06, 02:15:04,VALID,1002.71,VALID,0,INVALID,163.723,VALID,0,VALID,23.332,VALID,351,VALID,0,
2010-11-06, 02:16:04,VALID,1002.71,VALID,0,INVALID,163.708,VALID,0,VALID,23.2736,VALID,351,VALID,0,
2010-11-06, 02:17:04,VALID,1002.7,VALID,0,INVALID,163.731,VALID,0,VALID,23.2541,VALID,351,VALID,0,
2010-11-06, 02:18:04,VALID,1002.72,VALID,0,INVALID,163.723,VALID,0,VALID,23.2347,VALID,351,VALID,0,
2010-11-06, 02:19:04,VALID,1002.72,VALID,0,INVALID,163.731,VALID,0,VALID,23.2541,VALID,351,VALID,0,
2010-11-06, 02:20:04,VALID,1002.71,VALID,0,INVALID,163.731,VALID,0,VALID,23.2754,VALID,351,VALID,0,
2010-11-06, 02:21:04,VALID,1002.72,VALID,0,INVALID,163.762,VALID,0,VALID,23.2541,VALID,351,VALID,0,
2010-11-06, 02:22:04,VALID,1002.67,VALID,0,INVALID,163.716,VALID,0,VALID,23.2754,VALID,351,VALID,0,
2010-11-06, 02:23:04,VALID,1002.65,VALID,0,INVALID,163.731,VALID,0,VALID,23.2541,VALID,351,VALID,0,
2010-11-06, 02:24:04,VALID,1002.62,VALID,0,INVALID,163.746,VALID,0,VALID,23.2736,VALID,351,VALID,0,
2010-11-06, 02:25:04,VALID,1002.61,VALID,0,INVALID,163.739,VALID,0,VALID,23.3337,VALID,351,VALID,0.700781,
2010-11-06, 02:26:04,VALID,1002.59,VALID,0,INVALID,163.739,VALID,0,VALID,23.3107,VALID,351,VALID,0.587891,
2010-11-06, 02:27:04,VALID,1002.59,VALID,0,INVALID,163.723,VALID,0,VALID,23.3514,VALID,351,VALID,0.516406,
2010-11-06, 02:28:04,VALID,1002.6,VALID,0,INVALID,163.701,VALID,0,VALID,23.3709,VALID,351,VALID,0.525,
2010-11-06, 02:29:04,VALID,1002.58,VALID,0,INVALID,163.723,VALID,0,VALID,23.3709,VALID,351,VALID,0.501953,
2010-11-06, 02:30:04,VALID,1002.6,VALID,0,INVALID,163.723,VALID,0,VALID,23.3904,VALID,351,VALID,0.333984,
2010-11-06, 02:31:04,VALID,1002.6,VALID,0,INVALID,163.708,VALID,0,VALID,23.3709,VALID,351,VALID,0.155859,
2010-11-06, 02:32:04,VALID,1002.6,VALID,0,INVALID,163.723,VALID,0,VALID,23.3709,VALID,351,VALID,0,
2010-11-06, 02:33:04,VALID,1002.6,VALID,0,INVALID,163.723,VALID,0,VALID,23.3921,VALID,351,VALID,0,
2010-11-06, 02:34:04,VALID,1002.6,VALID,0,INVALID,163.723,VALID,0,VALID,23.3514,VALID,351,VALID,0.0683594,
2010-11-06, 02:35:04,VALID,1002.56,VALID,0,INVALID,163.716,VALID,0,VALID,23.3709,VALID,351,VALID,0.454688,
2010-11-06, 02:36:04,VALID,1002.58,VALID,0,INVALID,163.731,VALID,0,VALID,23.3709,VALID,351,VALID,0.560156,
2010-11-06, 02:37:04,VALID,1002.56,VALID,0,INVALID,163.716,VALID,0,VALID,23.3709,VALID,351,VALID,0.544922,
2010-11-06, 02:38:04,VALID,1002.53,VALID,0,INVALID,163.716,VALID,0,VALID,23.3921,VALID,351,VALID,0.433203,
2010-11-06, 02:39:04,VALID,1002.56,VALID,0,INVALID,163.693,VALID,0,VALID,23.3709,VALID,351,VALID,0.377344,
2010-11-06, 02:40:04,VALID,1002.52,VALID,0,INVALID,163.723,VALID,0,VALID,23.3727,VALID,351,VALID,0.413672,
2010-11-06, 02:41:04,VALID,1002.51,VALID,0,INVALID,163.723,VALID,0,VALID,23.3709,VALID,351,VALID,0.333984,
2010-11-06, 02:42:04,VALID,1002.49,VALID,0,INVALID,163.739,VALID,0,VALID,23.3709,VALID,351,VALID,0.403906,
2010-11-06, 02:43:04,VALID,1002.45,VALID,0,INVALID,163.716,VALID,0,VALID,23.3514,VALID,351,VALID,0.431641,
2010-11-06, 02:44:04,VALID,1002.44,VALID,0,INVALID,163.693,VALID,0,VALID,23.3514,VALID,351,VALID,0.444531,
2010-11-06, 02:45:04,VALID,1002.44,VALID,0,INVALID,163.67,VALID,0,VALID,23.3514,VALID,351,VALID,0.390234,
2010-11-06, 02:46:04,VALID,1002.42,VALID,0,INVALID,163.685,VALID,0,VALID,23.3514,VALID,351,VALID,0.582812,
2010-11-06, 02:47:04,VALID,1002.42,VALID,0,INVALID,163.716,VALID,0,VALID,23.3514,VALID,351,VALID,0.451953,
2010-11-06, 02:48:04,VALID,1002.42,VALID,0,INVALID,163.708,VALID,0,VALID,23.3709,VALID,351,VALID,0.309375,
2010-11-06, 02:49:04,VALID,1002.42,VALID,0,INVALID,163.708,VALID,0,VALID,23.3514,VALID,351,VALID,0,
2010-11-06, 02:50:04,VALID,1002.42,VALID,0,INVALID,163.708,VALID,0,VALID,23.3709,VALID,351,VALID,0,
2010-11-06, 02:51:04,VALID,1002.46,VALID,0,INVALID,163.708,VALID,0,VALID,23.3709,VALID,351,VALID,0,
2010-11-06, 02:52:04,VALID,1002.44,VALID,0,INVALID,163.708,VALID,0,VALID,23.3921,VALID,351,VALID,0,
2010-11-06, 02:53:04,VALID,1002.46,VALID,0,INVALID,163.67,VALID,0,VALID,23.3709,VALID,351,VALID,0,
2010-11-06, 02:54:04,VALID,1002.46,VALID,0,INVALID,163.701,VALID,0,VALID,23.3709,VALID,351,VALID,0,
2010-11-06, 02:55:04,VALID,1002.46,VALID,0,INVALID,163.693,VALID,0,VALID,23.3904,VALID,351,VALID,0,
2010-11-06, 02:56:04,VALID,1002.46,VALID,0,INVALID,163.701,VALID,0,VALID,23.3904,VALID,351,VALID,0.239063,
2010-11-06, 02:57:04,VALID,1002.47,VALID,0,INVALID,163.716,VALID,0,VALID,23.3691,VALID,351,VALID,0.544922,
2010-11-06, 02:58:04,VALID,1002.45,VALID,0,INVALID,163.701,VALID,0,VALID,23.3514,VALID,351,VALID,0.499609,
2010-11-06, 02:59:04,VALID,1002.45,VALID,0,INVALID,163.708,VALID,0,VALID,23.3727,VALID,351,VALID,0.413672,
2010-11-06, 03:00:04,VALID,1002.47,VALID,0,INVALID,163.701,VALID,0,VALID,23.332,VALID,351,VALID,0.291797,
2010-11-06, 03:01:04,VALID,1002.45,VALID,0,INVALID,163.708,VALID,0,VALID,23.332,VALID,351,VALID,0.2875,
2010-11-06, 03:02:04,VALID,1002.44,VALID,0,INVALID,163.693,VALID,0,VALID,23.3514,VALID,351,VALID,0.505469,
2010-11-06, 03:03:04,VALID,1002.46,VALID,0,INVALID,163.716,VALID,0,VALID,23.3514,VALID,351,VALID,0.464844,
2010-11-06, 03:04:04,VALID,1002.43,VALID,0,INVALID,163.678,VALID,0,VALID,23.332,VALID,351,VALID,0.391016,
2010-11-06, 03:05:04,VALID,1002.45,VALID,0,INVALID,163.693,VALID,0,VALID,23.3337,VALID,351,VALID,0.534375,
2010-11-06, 03:06:04,VALID,1002.46,VALID,0,INVALID,163.708,VALID,0,VALID,23.3125,VALID,351,VALID,0.449609,
2010-11-06, 03:07:04,VALID,1002.46,VALID,0,INVALID,163.708,VALID,0,VALID,23.2931,VALID,351,VALID,0.420703,
2010-11-06, 03:08:04,VALID,1002.48,VALID,0,INVALID,163.701,VALID,0,VALID,23.2948,VALID,351,VALID,0.579687,
2010-11-06, 03:09:04,VALID,1002.46,VALID,0,INVALID,163.701,VALID,0,VALID,23.2754,VALID,351,VALID,0.669531,
2010-11-06, 03:10:04,VALID,1002.48,VALID,0,INVALID,163.685,VALID,0,VALID,23.2541,VALID,350,VALID,0.646875,
2010-11-06, 03:11:04,VALID,1002.5,VALID,0,INVALID,163.708,VALID,0,VALID,23.2736,VALID,350,VALID,0.5,
2010-11-06, 03:12:04,VALID,1002.51,VALID,0,INVALID,163.716,VALID,0,VALID,23.2931,VALID,350,VALID,0.526953,
2010-11-06, 03:13:04,VALID,1002.52,VALID,0,INVALID,163.67,VALID,0,VALID,23.3125,VALID,350,VALID,0.6625,
2010-11-06, 03:14:04,VALID,1002.49,VALID,0,INVALID,163.655,VALID,0,VALID,23.3709,VALID,350,VALID,0.581641,
2010-11-06, 03:15:04,VALID,1002.49,VALID,0,INVALID,163.639,VALID,0,VALID,23.3904,VALID,339,VALID,0.607813,
2010-11-06, 03:16:04,VALID,1002.47,VALID,0,INVALID,163.647,VALID,0,VALID,23.3497,VALID,339,VALID,0.624609,
2010-11-06, 03:17:04,VALID,1002.49,VALID,0,INVALID,163.685,VALID,0,VALID,23.3514,VALID,340,VALID,0.703906,
2010-11-06, 03:18:04,VALID,1002.51,VALID,0,INVALID,163.678,VALID,0,VALID,23.3532,VALID,348,VALID,0.734766,
2010-11-06, 03:19:04,VALID,1002.5,VALID,0,INVALID,163.685,VALID,0,VALID,23.3532,VALID,349,VALID,0.696875,
2010-11-06, 03:20:04,VALID,1002.5,VALID,0,INVALID,163.701,VALID,0,VALID,23.3514,VALID,351,VALID,0.585938,
2010-11-06, 03:21:04,VALID,1002.5,VALID,0,INVALID,163.678,VALID,0,VALID,23.3727,VALID,356,VALID,0.769141,
2010-11-06, 03:22:04,VALID,1002.49,VALID,0,INVALID,163.693,VALID,0,VALID,23.3904,VALID,358,VALID,0.766016,
2010-11-06, 03:23:04,VALID,1002.5,VALID,0,INVALID,163.693,VALID,0,VALID,23.3904,VALID,2,VALID,0.682813,
2010-11-06, 03:24:04,VALID,1002.5,VALID,0,INVALID,163.678,VALID,0.100563,VALID,23.4098,VALID,2,VALID,0.841016,
2010-11-06, 03:25:04,VALID,1002.52,VALID,0,INVALID,163.716,VALID,0,VALID,23.4311,VALID,2,VALID,0.802734,
2010-11-06, 03:26:04,VALID,1002.52,VALID,0,INVALID,163.685,VALID,0,VALID,23.4098,VALID,2,VALID,0.697266,
2010-11-06, 03:27:04,VALID,1002.53,VALID,0,INVALID,163.701,VALID,0,VALID,23.4098,VALID,359,VALID,0.716406,
2010-11-06, 03:28:04,VALID,1002.51,VALID,0,INVALID,163.701,VALID,0,VALID,23.3904,VALID,359,VALID,0.590625,
2010-11-06, 03:29:04,VALID,1002.52,VALID,0,INVALID,163.708,VALID,0,VALID,23.3709,VALID,359,VALID,0.759375,
2010-11-06, 03:30:04,VALID,1002.53,VALID,0,INVALID,163.708,VALID,0,VALID,23.3921,VALID,359,VALID,0.775391,
2010-11-06, 03:31:04,VALID,1002.54,VALID,0,INVALID,163.708,VALID,0,VALID,23.4116,VALID,359,VALID,0.753516,
2010-11-06, 03:32:04,VALID,1002.54,VALID,0,INVALID,163.716,VALID,0,VALID,23.3921,VALID,359,VALID,0.717578,
2010-11-06, 03:33:04,VALID,1002.55,VALID,0,INVALID,163.708,VALID,0,VALID,23.3709,VALID,359,VALID,0.751172,
2010-11-06, 03:34:04,VALID,1002.58,VALID,0,INVALID,163.693,VALID,0,VALID,23.3514,VALID,359,VALID,0.641406,
2010-11-06, 03:35:04,VALID,1002.59,VALID,0,INVALID,163.731,VALID,0,VALID,23.3514,VALID,359,VALID,0.555469,
2010-11-06, 03:36:04,VALID,1002.59,VALID,0,INVALID,163.693,VALID,0,VALID,23.3727,VALID,359,VALID,0.718359,
2010-11-06, 03:37:04,VALID,1002.61,VALID,0,INVALID,163.685,VALID,0,VALID,23.3514,VALID,359,VALID,0.683984,
2010-11-06, 03:38:04,VALID,1002.62,VALID,0,INVALID,163.685,VALID,0,VALID,23.3904,VALID,358,VALID,0.76875,
2010-11-06, 03:39:04,VALID,1002.59,VALID,0,INVALID,163.708,VALID,0,VALID,23.4098,VALID,356,VALID,0.669922,
2010-11-06, 03:40:04,VALID,1002.62,VALID,0,INVALID,163.716,VALID,0,VALID,23.4098,VALID,356,VALID,0.7125,
2010-11-06, 03:41:04,VALID,1002.65,VALID,0,INVALID,163.693,VALID,0,VALID,23.4293,VALID,356,VALID,0.651953,
2010-11-06, 03:42:04,VALID,1002.61,VALID,0,INVALID,163.685,VALID,0,VALID,23.4275,VALID,357,VALID,0.557422,